DHK058 EGNX-KCVG

Flight info

Callsign DHK058
Flight time N/A
Altitude 24000
Route SAPCO DCT LUXTO N92 BUCGO L9 TIGWE/N0488F300 DCT FELCA DCT OFSOX DCT BANBA DCT TOBOR/M084F320 DCT 53N020W 53N030W 5230N04000W 50N050W DCT ELSIR/N0478F340 N398B TUSKY Q475 COPLY DCT BOS DCT BAF DCT PSB DCT MAULL DCT KODIE DCT SAVVI TIGRR4
Aircraft B77L/H-SDE1E2E3FGHIJ2J3J4J5M1RWXY/LB1D1

Departure

Time 2026-05-06 03:13
Airport East Midlands Airport (EGNX)

Arrival

Time N/A
Airport Cincinnati Northern Kentucky International Airport (KCVG)
Time Latitude Longitude Altitude Speed Heading
2026-05-06 02:48 52.82724 -1.35339 305 ft 0 kts 178°
2026-05-06 03:04 52.82728 -1.35340 332 ft 3 kts 179°
2026-05-06 03:04 52.82754 -1.35339 303 ft 4 kts 184°
2026-05-06 03:04 52.82781 -1.35336 303 ft 4 kts 175°
2026-05-06 03:04 52.82801 -1.35344 305 ft 3 kts 144°
2026-05-06 03:05 52.82815 -1.35368 305 ft 4 kts 103°
2026-05-06 03:05 52.82817 -1.35410 302 ft 4 kts 88°
2026-05-06 03:05 52.82817 -1.35421 302 ft 0 kts 88°
2026-05-06 03:08 52.82817 -1.35407 308 ft 3 kts 88°
2026-05-06 03:08 52.82817 -1.35377 308 ft 3 kts 88°
2026-05-06 03:08 52.82819 -1.35337 308 ft 4 kts 84°
2026-05-06 03:08 52.82830 -1.35295 307 ft 4 kts 54°
2026-05-06 03:09 52.82854 -1.35275 309 ft 4 kts 19°
2026-05-06 03:09 52.82877 -1.35249 311 ft 4 kts 45°
2026-05-06 03:09 52.82891 -1.35198 310 ft 7 kts 75°
2026-05-06 03:09 52.82895 -1.35117 308 ft 7 kts 88°
2026-05-06 03:10 52.82897 -1.35035 308 ft 7 kts 88°
2026-05-06 03:10 52.82901 -1.34982 309 ft 5 kts 69°
2026-05-06 03:10 52.82924 -1.34946 312 ft 5 kts 30°
2026-05-06 03:10 52.82955 -1.34937 310 ft 5 kts
2026-05-06 03:11 52.82987 -1.34937 309 ft 5 kts 359°
2026-05-06 03:11 52.83020 -1.34938 309 ft 5 kts
2026-05-06 03:11 52.83049 -1.34917 312 ft 5 kts 39°
2026-05-06 03:11 52.83062 -1.34864 307 ft 5 kts 79°
2026-05-06 03:12 52.83064 -1.34797 307 ft 9 kts 88°
2026-05-06 03:12 52.83070 -1.34474 306 ft 60 kts 88°
2026-05-06 03:12 52.83090 -1.33344 311 ft 137 kts 88°
2026-05-06 03:12 52.83119 -1.31342 328 ft 199 kts 89°
2026-05-06 03:13 52.83150 -1.28998 816 ft 211 kts 88°
2026-05-06 03:13 52.83073 -1.26528 1567 ft 220 kts 91°
2026-05-06 03:13 52.82902 -1.24030 2472 ft 220 kts 98°
2026-05-06 03:13 52.82244 -1.21584 2701 ft 248 kts 126°
2026-05-06 03:14 52.80950 -1.19570 3156 ft 260 kts 135°
2026-05-06 03:14 52.79621 -1.17515 3837 ft 264 kts 132°
2026-05-06 03:14 52.78277 -1.15409 4450 ft 270 kts 141°
2026-05-06 03:14 52.76507 -1.14264 4912 ft 283 kts 179°
2026-05-06 03:15 52.74621 -1.14982 5603 ft 279 kts 215°
2026-05-06 03:15 52.73222 -1.17099 6328 ft 271 kts 231°
2026-05-06 03:15 52.71883 -1.19348 6932 ft 278 kts 225°
2026-05-06 03:15 52.70419 -1.21456 7578 ft 281 kts 222°
2026-05-06 03:16 52.68894 -1.23509 8263 ft 284 kts 221°
2026-05-06 03:16 52.67345 -1.25554 8857 ft 287 kts 220°
2026-05-06 03:16 52.65768 -1.27615 9065 ft 290 kts 220°
2026-05-06 03:16 52.64192 -1.29662 9720 ft 289 kts 220°
2026-05-06 03:17 52.62600 -1.31727 10261 ft 295 kts 220°
2026-05-06 03:17 52.60937 -1.33884 10473 ft 315 kts 220°
2026-05-06 03:17 52.59095 -1.35921 10604 ft 334 kts 205°
2026-05-06 03:17 52.56760 -1.36831 10780 ft 356 kts 181°
2026-05-06 03:18 52.54258 -1.36123 11009 ft 373 kts 159°
2026-05-06 03:18 52.51798 -1.34687 11235 ft 381 kts 171°
2026-05-06 03:18 52.49143 -1.34827 11734 ft 386 kts 197°
2026-05-06 03:18 52.46789 -1.36814 12521 ft 382 kts 222°
2026-05-06 03:19 52.45156 -1.40190 13285 ft 378 kts 246°
2026-05-06 03:19 52.44234 -1.44232 13946 ft 381 kts 255°
2026-05-06 03:19 52.43506 -1.48431 14554 ft 385 kts 255°
2026-05-06 03:19 52.42638 -1.52540 15197 ft 388 kts 248°
2026-05-06 03:20 52.39919 -1.60231 16566 ft 394 kts 235°
2026-05-06 03:20 52.38213 -1.63765 17207 ft 397 kts 231°
2026-05-06 03:20 52.36388 -1.67184 17850 ft 400 kts 229°
2026-05-06 03:21 52.34500 -1.70557 18460 ft 403 kts 229°
2026-05-06 03:21 52.32581 -1.73918 19016 ft 406 kts 228°
2026-05-06 03:21 52.30642 -1.77303 19523 ft 409 kts 228°
2026-05-06 03:21 52.28689 -1.80717 20042 ft 412 kts 228°
2026-05-06 03:22 52.26725 -1.84160 20526 ft 416 kts 228°
2026-05-06 03:22 52.24750 -1.87625 21042 ft 419 kts 228°
2026-05-06 03:22 52.22757 -1.91124 21540 ft 422 kts 228°
2026-05-06 03:22 52.20747 -1.94650 22037 ft 425 kts 228°
2026-05-06 03:23 52.18725 -1.98193 22528 ft 428 kts 228°
2026-05-06 03:23 52.16708 -2.01720 23009 ft 432 kts 228°
2026-05-06 03:23 52.14650 -2.05309 23481 ft 435 kts 227°
2026-05-06 03:23 52.12481 -2.08772 23866 ft 439 kts 224°
2026-05-06 03:24 52.10221 -2.12144 24257 ft 442 kts 224°
2026-05-06 03:24 52.07946 -2.15521 24682 ft 444 kts 224°
2026-05-06 03:24 52.05656 -2.18926 25104 ft 446 kts 224°
2026-05-06 03:24 52.03366 -2.22342 25509 ft 449 kts 224°
2026-05-06 03:25 52.01064 -2.25781 25888 ft 451 kts 224°
2026-05-06 03:25 51.98739 -2.29252 26262 ft 454 kts 224°
2026-05-06 03:25 51.96403 -2.32736 26655 ft 456 kts 224°
2026-05-06 03:25 51.94068 -2.36234 27034 ft 459 kts 224°
2026-05-06 03:26 51.91717 -2.39766 27402 ft 461 kts 224°
2026-05-06 03:26 51.89354 -2.43311 27763 ft 464 kts 224°
2026-05-06 03:26 51.87009 -2.46824 28115 ft 466 kts 224°
2026-05-06 03:26 51.84620 -2.50395 28447 ft 469 kts 224°
2026-05-06 03:27 51.82211 -2.53981 28772 ft 471 kts 223°
2026-05-06 03:27 51.79732 -2.57438 29047 ft 468 kts 224°
2026-05-06 03:27 51.77691 -2.61551 29058 ft 472 kts 244°
2026-05-06 03:27 51.76670 -2.66576 29280 ft 473 kts 264°
2026-05-06 03:28 51.76785 -2.71866 29626 ft 472 kts 282°
2026-05-06 03:28 51.77551 -2.77004 29787 ft 472 kts 281°
2026-05-06 03:28 51.78094 -2.82200 29914 ft 477 kts 277°
2026-05-06 03:28 51.78477 -2.87540 29973 ft 479 kts 276°
2026-05-06 03:29 51.79100 -2.98220 30013 ft 475 kts 275°
2026-05-06 03:29 51.79762 -3.08815 30030 ft 473 kts 276°
2026-05-06 03:30 51.80457 -3.19382 30022 ft 473 kts 276°
2026-05-06 03:30 51.81113 -3.29975 30020 ft 473 kts 276°
2026-05-06 03:31 51.81725 -3.40527 30015 ft 474 kts 276°
2026-05-06 03:31 51.82342 -3.51133 30010 ft 474 kts 276°
2026-05-06 03:32 51.83430 -3.61635 30013 ft 473 kts 282°
2026-05-06 03:32 51.84820 -3.72039 30008 ft 473 kts 282°
2026-05-06 03:33 51.86191 -3.82455 30015 ft 473 kts 282°
2026-05-06 03:33 51.87524 -3.92832 30015 ft 473 kts 282°
2026-05-06 03:34 51.88845 -4.03267 30013 ft 473 kts 282°
2026-05-06 03:34 51.90156 -4.13703 30014 ft 472 kts 282°
2026-05-06 03:35 51.91457 -4.24135 30006 ft 472 kts 282°
2026-05-06 03:35 51.92750 -4.34570 30013 ft 472 kts 281°
2026-05-06 03:36 51.94032 -4.45000 30015 ft 472 kts 281°
2026-05-06 03:36 51.95297 -4.55374 30018 ft 472 kts 281°
2026-05-06 03:37 51.96561 -4.65820 30017 ft 472 kts 281°
2026-05-06 03:37 51.97816 -4.76274 30016 ft 472 kts 281°
2026-05-06 03:38 51.99061 -4.86730 30018 ft 472 kts 281°
2026-05-06 03:38 52.00290 -4.97131 30019 ft 471 kts 281°
2026-05-06 03:39 52.01517 -5.07579 30017 ft 471 kts 281°
2026-05-06 03:39 52.02497 -5.18096 30013 ft 471 kts 274°
2026-05-06 03:40 52.02345 -5.28720 30023 ft 471 kts 264°
2026-05-06 03:40 52.01567 -5.39269 30021 ft 471 kts 264°
2026-05-06 03:41 52.00786 -5.49826 30022 ft 471 kts 264°
2026-05-06 03:41 52.00028 -5.60333 30021 ft 471 kts 264°
2026-05-06 03:42 51.99267 -5.70905 30028 ft 471 kts 264°
2026-05-06 03:42 51.98497 -5.81464 30026 ft 471 kts 264°
2026-05-06 03:43 51.97715 -5.92041 30383 ft 472 kts 264°
2026-05-06 03:43 51.97322 -5.97309 30831 ft 468 kts 264°
2026-05-06 03:43 51.96930 -6.02524 31303 ft 464 kts 263°
2026-05-06 03:44 51.96540 -6.07700 31728 ft 461 kts 263°
2026-05-06 03:44 51.96154 -6.12791 31977 ft 461 kts 263°
2026-05-06 03:44 51.95627 -6.23197 32042 ft 462 kts 270°
2026-05-06 03:45 51.96176 -6.33519 32045 ft 458 kts 279°
2026-05-06 03:45 51.97219 -6.43710 32025 ft 457 kts 279°
2026-05-06 03:46 51.98247 -6.53817 32050 ft 456 kts 279°
2026-05-06 03:46 51.99253 -6.63988 32046 ft 456 kts 278°
2026-05-06 03:47 52.00239 -6.74176 32041 ft 457 kts 278°
2026-05-06 03:47 52.01216 -6.84389 32032 ft 458 kts 278°
2026-05-06 03:48 52.02021 -6.92888 32041 ft 458 kts 278°
2026-05-06 03:48 52.02984 -7.03121 32051 ft 459 kts 278°
2026-05-06 03:49 52.04092 -7.15034 32053 ft 459 kts 278°
2026-05-06 03:49 52.04884 -7.23625 32037 ft 459 kts 278°
2026-05-06 03:50 52.05821 -7.33878 32037 ft 458 kts 278°
2026-05-06 03:50 52.06746 -7.44113 32036 ft 458 kts 278°
2026-05-06 03:51 52.07656 -7.54277 32044 ft 457 kts 278°
2026-05-06 03:51 52.08563 -7.64510 32043 ft 456 kts 277°
2026-05-06 03:52 52.09460 -7.74732 32044 ft 455 kts 277°
2026-05-06 03:52 52.10341 -7.84882 32047 ft 455 kts 277°
2026-05-06 03:53 52.11218 -7.95084 32046 ft 454 kts 277°
2026-05-06 03:53 52.12084 -8.05270 32046 ft 454 kts 277°
2026-05-06 03:54 52.12943 -8.15472 32049 ft 454 kts 277°
2026-05-06 03:54 52.13786 -8.25599 32050 ft 454 kts 277°
2026-05-06 03:55 52.14626 -8.35802 32047 ft 454 kts 277°
2026-05-06 03:55 52.15457 -8.46002 32051 ft 454 kts 277°
2026-05-06 03:56 52.16281 -8.56223 32051 ft 455 kts 277°
2026-05-06 03:56 52.17095 -8.66440 32054 ft 455 kts 277°